This is the latest recevied weather packets stored in our database for station/object KC5DP. If no packets are shown the sender has not sent any weather packets the latest 10 day(s).
| Time | Temp. | Humidity | Pressure | Rain* | Wind** | Luminosity | Snow |
|---|---|---|---|---|---|---|---|
| 1778011907 | 27.78° C | 67% | 1010.6 hPa | 0 mm | - | 190 W/m² | - |
| 1778011605 | 27.78° C | 65% | 1010.6 hPa | 0 mm | - | 273 W/m² | - |
| 1778011301 | 27.78° C | 65% | 1010.7 hPa | 0 mm | - | 293 W/m² | - |
| 1778010997 | 27.78° C | 65% | 1010.7 hPa | 0 mm | - | 293 W/m² | - |
| 1778010695 | 27.78° C | 64% | 1010.6 hPa | 0 mm | - | 216 W/m² | - |
| 1778010392 | 27.78° C | 64% | 1010.7 hPa | 0 mm | - | 393 W/m² | - |
| 1778010088 | 27.78° C | 66% | 1010.8 hPa | 0 mm | - | 262 W/m² | - |
| 1778009785 | 27.78° C | 66% | 1010.7 hPa | 0 mm | - | 322 W/m² | - |
| 1778009482 | 27.78° C | 65% | 1010.9 hPa | 0 mm | - | 301 W/m² | - |
| 1778009180 | 27.78° C | 64% | 1010.8 hPa | 0 mm | - | 302 W/m² | - |
| 1778008877 | 27.78° C | 65% | 1011.1 hPa | 0 mm | - | 339 W/m² | - |
| 1778008576 | 27.78° C | 65% | 1010.9 hPa | 0 mm | - | 294 W/m² | - |
| 1778008273 | 27.78° C | 66% | 1011 hPa | 0 mm | - | 523 W/m² | - |
| 1778007969 | 27.22° C | 65% | 1010.9 hPa | 0 mm | - | 266 W/m² | - |
| 1778007664 | 27.22° C | 67% | 1011 hPa | 0 mm | - | 294 W/m² | - |
| 1778007361 | 27.22° C | 66% | 1011 hPa | 0 mm | - | 237 W/m² | - |
| 1778007057 | 27.22° C | 65% | 1011.2 hPa | 0 mm | - | 401 W/m² | - |
| 1778006754 | 27.22° C | 65% | 1011.2 hPa | 0 mm | - | 401 W/m² | - |
| 1778006451 | 27.22° C | 64% | 1011 hPa | 0 mm | - | 477 W/m² | - |
| 1778006147 | 27.22° C | 65% | 1011.3 hPa | 0 mm | - | 397 W/m² | - |
| 1778005845 | 27.78° C | 63% | 1011.3 hPa | 0 mm | - | 252 W/m² | - |
| 1778005541 | 27.78° C | 62% | 1011.4 hPa | 0 mm | - | 539 W/m² | - |
| 1778005238 | 27.78° C | 63% | 1011.6 hPa | 0 mm | - | 261 W/m² | - |
| 1778004935 | 27.78° C | 62% | 1011.4 hPa | 0 mm | - | 263 W/m² | - |
| 1778004632 | 27.78° C | 63% | 1011.5 hPa | 0 mm | - | 811 W/m² | - |
* Rain latest hour (hover to see other rain measurements)
** Current wind speed in m/s (hover to see current wind gust speed)